SCP
1 2 2 2 2 2 2 2 1 1 1 1 1 1 1 1 1 1 1 1 1 1 1 0 0 0 0 0 0 0 0 0 0 0 0 0 0 0 0 0 0 0 0
2 2 2 2 2 2 2 2 1 1 1 1 1 1 1 1 1 1 1 1 1 1 1 1 0 0 0 1 0 0 0 0 0 0 0 0 0 0 0 0 0 0 0
2 2 2 2 2 2 2 2 2 2 1 1 1 1 1 1 1 1 1 1 1 1 1 1 1 0 1 1 1 1 0 0 0 0 0 0 0 0 0 0 0 0 0
2 2 2 2 2 2 2 2 2 2 2 2 1 1 1 1 1 1 1 1 1 1 1 1 1 1 1 1 1 1 1 1 0 0 0 0 0 0 0 0 0 0 1
2 2 2 2 2 2 2 2 2 2 2 2 2 1 1 1 1 1 1 1 1 1 1 1 1 1 1 1 1 1 1 1 1 0 0 0 0 0 0 0 0 0 0
1 2 2 2 2 2 2 2 2 2 2 2 2 2 1 1 1 1 1 1 1 1 1 1 1 1 1 1 1 1 1 1 1 1 1 0 0 0 0 0 0 0 0
1 2 2 2 2 2 2 2 2 2 2 2 2 2 2 1 1 1 1 1 1 1 1 1 1 1 1 1 1 1 1 1 1 1 1 1 0 0 0 0 0 0 0
1 2 2 2 2 2 2 2 2 2 2 2 2 2 2 1 1 1 1 1 1 1 1 1 1 1 1 1 1 0 0 0 0 1 1 0 0 0 0 0 0 0 0
1 1 2 2 2 2 2 2 2 2 2 2 2 2 2 1 1 1 1 1 1 1 1 1 1 1 1 1 0 0 0 0 0 0 0 0 0 0 0 0 0 0 0
1 1 2 2 2 2 2 2 2 2 2 2 2 2 1 1 1 1 1 1 1 1 1 1 1 1 1 1 0 0 0 0 0 0 0 0 0 0 0 0 0 0 0
1 1 1 2 2 2 2 2 2 2 2 2 2 1 1 1 1 1 1 1 1 1 1 1 1 1 0 0 0 0 0 0 0 0 0 0 0 0 0 0 0 0 0
1 1 1 2 2 2 2 2 2 2 1 1 1 1 1 1 1 1 1 1 1 1 1 1 1 1 0 0 0 0 0 0 0 0 0 0 0 0 0 0 0 0 0
1 1 2 2 2 2 2 2 1 1 1 1 1 1 1 1 1 1 1 1 1 1 1 1 1 1 0 0 0 0 0 0 0 0 0 0 0 0 0 0 0 0 0
1 2 2 2 2 2 2 2 1 1 1 1 1 1 1 1 1 1 1 1 1 1 1 1 1 0 0 0 0 0 0 0 0 0 0 0 0 0 0 0 0 0 0
1 2 2 2 2 2 2 1 1 1 1 1 1 1 1 1 1 1 1 1 1 1 1 1 0 0 0 0 0 0 0 0 0 0 0 0 0 0 0 0 0 0 0
1 2 2 2 2 2 2 1 1 1 1 1 1 1 1 1 1 1 1 1 1 1 0 0 0 0 0 0 0 0 0 0 0 0 0 0 0 0 0 0 0 0 0
2 2 2 2 2 2 2 2 1 1 1 1 1 1 1 1 1 1 1 1 0 0 0 0 0 0 0 0 0 0 0 0 0 0 0 0 0 0 0 0 0 0 0
2 2 2 2 2 2 2 2 1 1 1 1 1 1 1 1 1 1 1 1 0 0 0 0 0 0 0 0 0 0 0 0 0 0 0 0 0 0 0 0 0 0 0
2 2 2 2 2 2 2 2 1 1 1 1 1 1 1 1 1 1 1 1 0 0 0 0 0 0 0 0 0 0 0 0 0 0 0 0 0 0 0 0 0 0 0
2 2 2 2 2 2 2 2 1 1 1 1 1 1 1 1 1 1 1 1 0 0 0 0 0 0 0 0 0 0 0 0 0 0 0 0 0 0 0 0 0 0 0
2 3 3 3 3 2 2 2 2 1 1 1 1 1 1 1 1 1 1 1 0 0 0 0 0 0 0 0 0 0 0 0 0 0 0 0 0 0 0 0 0 0 0
2 2 3 3 3 2 2 2 2 1 1 1 1 1 1 1 1 1 1 1 0 0 0 0 0 0 0 0 0 0 0 0 0 0 0 0 0 0 0 0 0 0 0
2 2 3 2 2 2 2 2 1 1 1 1 1 1 1 1 1 1 1 0 0 0 0 0 0 0 0 0 0 0 0 0 0 0 0 0 0 0 0 0 0 0 0
2 2 2 2 2 2 2 1 1 1 1 1 1 1 1 1 0 0 0 0 0 0 0 0 0 0 0 0 0 0 0 0 0 0 0 0 0 0 0 0 0 0 0
2 2 2 2 2 1 1 1 1 1 1 1 1 0 0 0 0 0 0 0 0 0 0 0 0 0 0 0 0 0 0 0 0 0 0 0 0 0 0 0 0 0 0
1 1 1 1 1 1 1 1 1 1 1 1 0 0 0 0 0 0 0 0 0 0 0 0 0 0 0 0 0 0 0 0 0 0 0 0 0 0 0 0 0 0 0
Wind_Speed
14 13 13 13 12 10 9 8 7 6 5 4 4 4 4 3 3 4 5 6 6 6 5 4 3 4 3 3 3 2 3 3 3 2 3 3 4 4 4 4 4 5 6
14 13 12 12 12 11 10 9 8 8 7 4 3 3 3 3 4 4 4 5 6 6 6 5 4 5 3 4 4 3 2 3 3 2 2 2 2 3 6 5 5 5 4
16 15 14 13 13 12 11 9 9 8 7 6 4 3 2 2 2 2 3 4 5 5 5 6 5 4 5 4 5 5 5 3 3 3 2 2 2 2 2 3 3 3 3
15 16 15 13 12 12 11 9 9 8 7 6 5 5 4 4 3 2 2 3 4 5 6 6 6 5 4 4 6 6 5 4 3 3 3 3 1 1 2 2 1 3 3
12 14 14 12 12 12 11 9 9 7 7 6 6 5 4 3 2 2 2 3 3 4 5 5 4 4 4 5 5 4 4 4 4 3 3 3 3 4 3 3 2 2 1
8 11 12 11 10 10 10 10 9 7 7 6 6 5 4 3 2 2 2 3 2 3 5 5 4 5 4 4 4 4 5 5 5 4 3 3 2 3 3 3 3 3 2
9 10 11 11 9 9 9 9 9 7 6 6 5 4 4 3 3 2 2 2 2 3 4 5 4 4 4 4 4 4 5 5 5 4 4 3 3 3 2 3 3 3 2
10 10 10 10 9 9 8 8 8 7 6 6 5 4 4 3 2 2 2 2 2 3 3 4 4 4 5 5 4 4 5 4 4 5 4 3 3 2 2 3 3 3 2
10 11 11 10 9 9 8 8 7 6 6 5 4 4 3 2 2 1 2 2 2 2 2 2 3 4 4 4 3 3 4 3 4 3 3 3 3 2 2 2 2 3 3
9 9 10 9 9 8 8 7 7 6 5 4 4 4 3 2 1 1 1 0 1 2 2 1 2 3 3 3 3 3 3 3 2 2 3 3 2 2 2 2 2 2 2
7 8 8 8 8 7 8 7 6 5 4 3 3 2 2 2 1 1 0 1 1 1 2 2 1 1 1 1 1 2 2 2 1 2 2 3 2 1 1 1 1 1 1
8 9 9 9 8 7 8 7 6 5 5 4 3 2 2 2 1 1 1 1 2 2 2 2 2 2 2 2 1 0 1 0 0 1 1 2 1 0 1 1 1 1 1
8 8 9 9 8 7 7 7 6 5 4 4 4 3 2 2 2 2 2 2 2 2 2 3 3 3 3 3 3 3 2 3 3 3 2 2 2 2 1 1 1 1 1
8 8 9 8 7 7 6 6 5 5 5 4 4 3 2 2 2 3 3 3 3 3 3 4 4 4 4 4 4 3 4 5 5 5 5 4 4 3 2 2 2 1 1
9 9 9 8 7 7 6 5 5 5 5 4 4 4 3 3 4 4 4 4 4 4 4 5 5 5 4 5 5 4 6 6 6 6 6 7 8 9 6 4 4 3 2
10 10 10 9 8 7 6 6 5 5 5 5 5 4 4 4 5 5 5 4 5 5 5 5 6 6 6 9 10 7 6 6 6 5 5 6 7 8 9 11 10 8 5
9 10 10 9 8 7 6 6 6 6 5 5 5 4 5 5 5 5 5 5 5 5 6 6 7 8 9 11 10 10 7 7 7 7 6 6 7 6 5 8 9 11 11
9 9 9 9 9 8 7 7 7 6 6 6 5 5 5 6 6 6 6 6 5 5 6 6 7 7 9 10 9 9 8 8 8 8 8 7 7 8 6 6 7 8 8
8 8 9 9 8 8 8 7 7 7 6 6 5 5 5 6 6 6 6 6 6 6 6 6 7 7 7 10 9 6 6 7 8 8 9 8 8 10 8 6 6 6 5
6 7 8 9 8 7 8 7 7 6 6 6 6 6 5 6 6 5 5 6 6 6 7 8 7 7 8 10 11 7 5 6 6 6 8 12 10 11 10 6 5 5 4
7 8 8 8 7 7 7 7 7 6 6 7 7 6 6 6 6 5 5 6 6 7 7 7 7 7 7 9 11 9 4 5 5 5 5 6 9 10 10 8 5 4 2
8 8 8 7 6 7 7 7 7 7 7 7 7 6 6 5 6 6 5 5 6 6 6 6 6 5 6 7 9 11 10 7 6 5 5 4 6 7 7 6 6 6 4
7 8 9 8 7 6 7 8 7 7 7 7 7 6 6 5 5 4 4 4 3 4 4 4 5 5 5 6 9 10 10 9 6 4 4 3 3 3 3 4 6 5 3
8 8 8 8 7 7 8 8 7 7 7 7 7 6 6 6 6 4 4 4 3 3 3 4 5 5 5 4 4 4 5 6 5 3 2 1 2 2 3 3 4 4 4
6 7 7 8 8 8 8 8 7 7 8 7 6 6 7 7 7 8 8 7 7 5 3 4 4 5 5 3 4 3 3 3 4 2 0 1 1 2 3 3 3 4 4
6 7 8 8 8 8 8 7 6 7 7 6 6 5 6 6 7 8 8 14 11 13 14 11 9 7 7 6 7 8 7 7 6 3 2 3 3 4 4 3 4 4 4
Wind_Direction
176 170 172 170 167 163 164 172 183 174 177 186 190 206 214 211 208 210 197 194 206 204 203 236 202 223 223 214 224 220 231 232 236 263 281 262 231 211 208 214 219 211 207
173 171 174 174 169 168 171 176 184 179 186 193 197 211 213 212 210 218 195 200 208 210 207 210 220 215 219 217 228 223 238 252 221 211 254 285 275 246 223 203 210 213 202
176 174 178 180 175 173 178 183 182 182 188 193 192 220 216 236 235 218 206 215 212 216 229 206 221 224 222 214 215 217 218 236 250 216 199 221 249 280 254 218 212 199 187
176 175 179 180 179 176 179 176 175 179 183 191 203 212 216 223 227 215 209 213 222 227 229 221 222 224 233 227 218 217 216 221 241 246 227 236 240 273 308 301 237 212 200
174 173 175 176 179 177 173 173 173 178 181 193 205 214 230 233 237 212 211 220 222 231 238 229 226 225 234 234 233 226 216 216 225 234 234 234 238 229 229 268 293 293 238
163 168 166 167 172 170 169 173 169 174 182 193 203 209 230 235 240 234 222 226 230 231 237 230 218 221 229 233 233 229 223 225 232 237 242 235 226 227 221 235 252 260 265
160 163 162 163 165 165 165 163 161 174 182 190 201 207 220 228 232 243 239 239 249 243 238 236 219 222 224 225 228 228 234 230 231 232 239 245 243 240 237 238 249 255 254
157 154 151 153 157 158 157 155 159 170 178 185 192 199 209 221 225 236 247 251 251 254 253 233 225 226 229 229 221 233 229 233 235 239 237 246 253 251 246 241 239 258 264
149 150 150 153 153 156 155 152 152 159 171 181 182 187 197 211 214 212 227 248 261 268 268 233 226 225 227 233 228 231 234 224 227 242 249 248 261 262 256 248 233 230 255
148 146 144 143 145 152 142 139 143 149 156 166 181 178 187 194 197 242 254 317 319 323 319 275 236 229 228 223 228 234 225 217 232 236 253 255 260 267 267 259 248 222 224
134 130 129 130 132 134 133 133 135 138 141 151 157 140 145 156 177 221 292 57 47 355 343 7 6 338 293 229 214 236 232 218 246 257 254 253 253 257 276 287 268 248 220
136 129 132 128 129 135 134 132 132 135 139 137 135 132 131 130 128 91 43 61 65 49 27 32 41 29 25 18 31 13 26 35 322 316 333 331 318 344 326 319 299 276 258
131 129 126 125 130 131 126 127 129 130 131 129 132 125 116 109 99 80 74 77 78 69 54 57 52 39 36 33 39 43 36 38 37 35 28 17 21 20 13 358 334 319 304
128 127 121 120 120 117 116 122 128 126 122 119 120 114 106 102 94 85 77 72 73 71 63 62 54 48 43 39 41 49 52 52 47 42 40 33 29 20 9 12 356 351 4
141 136 131 127 126 122 124 127 124 119 114 117 113 106 99 90 92 87 79 72 68 73 67 63 56 47 45 37 41 49 62 58 54 49 50 55 56 54 48 42 25 20 22
146 140 135 135 134 133 136 129 122 117 113 110 102 97 95 90 90 90 86 79 74 70 71 65 61 57 51 41 46 54 62 57 54 51 50 64 61 64 66 64 57 49 43
145 142 140 139 138 138 133 128 123 118 114 106 100 98 95 93 87 90 90 83 75 69 73 69 68 64 47 44 51 55 66 61 52 45 43 53 51 48 67 71 62 54 47
141 141 142 141 140 138 132 126 124 120 116 111 103 97 96 95 90 86 85 82 79 76 75 73 71 70 51 43 51 61 71 66 55 47 44 49 43 35 41 66 66 58 46
127 134 138 135 132 131 127 126 121 117 115 110 104 100 100 96 90 87 87 84 83 78 74 74 72 69 53 36 40 63 79 74 64 57 49 46 46 30 41 65 73 70 66
111 123 126 126 124 126 128 125 121 119 114 109 103 98 98 99 97 93 93 94 92 89 85 76 70 68 57 38 39 53 84 87 83 74 63 51 43 33 35 51 60 63 50
118 118 119 121 119 119 120 121 118 114 110 108 105 98 95 97 100 97 96 99 98 97 94 91 80 70 62 53 45 44 67 77 79 73 64 48 40 43 40 45 50 42 9
121 121 115 113 112 117 122 120 114 110 108 107 105 102 102 104 104 103 106 108 112 111 108 105 97 83 69 57 54 56 59 64 74 72 72 67 51 48 42 41 25 9 2
119 119 119 114 111 112 117 118 113 113 112 107 103 101 96 87 95 104 111 121 127 122 119 114 101 91 83 72 67 67 68 67 72 76 82 76 54 35 45 37 18 12 17
120 121 122 119 115 111 111 112 113 113 113 110 106 104 99 89 73 70 72 70 58 82 99 101 105 102 89 70 58 72 77 87 86 91 103 65 1 16 33 32 35 37 31
117 120 121 121 119 116 114 114 118 120 119 117 115 110 101 94 78 63 45 55 48 38 67 81 87 100 94 57 43 62 60 49 44 1 173 101 86 79 68 58 46 38 33
122 119 118 119 121 121 119 121 125 126 128 132 134 125 120 115 111 104 82 53 58 56 60 70 85 81 91 91 66 56 48 37 17 16 53 57 50 49 50 50 54 50 33